Woodward, OK

3:21 AM CDT on August 22, 2017 (GMT -0500)
West Woodward

Weather History for KWWR - March, 2013

Change the Weather History Date:

Wednesday, March 27, 2013

  Actual Average (KGAG) Record (KGAG)
Temperature  
Mean Temperature 56 °F -  
Max Temperature 71 °F 63 °F 91 °F (1971)
Min Temperature 42 °F 38 °F 9 °F (1955)
Degree Days  
Heating Degree Days 8    
Growing Degree Days 6 (Base 50)    
Moisture  
Dew Point 26 °F    
Average Humidity 35    
Maximum Humidity 50    
Minimum Humidity 19    
Precipitation  
Precipitation 0.00 in - - ()
Sea Level Pressure  
Sea Level Pressure 30.04 in    
Wind  
Wind Speed 18 mph (SSW)    
Max Wind Speed 30 mph    
Max Gust Speed 37 mph    
Visibility 10 miles    
Events      
Averages and records for this station are not official NWS values.
T = Trace of Precipitation, MM = Missing Value Source: NWS Daily Summary

Daily Weather History Graph

Daily Weather History Graph

Search for Another Location

Airport or City:

Trip Planner

Search our weather history database for the weather conditions in past years. The results will help you decide how hot, cold, wet, or windy it might be!

Date:

Astronomy

Mar. 27, 2013 Rise Set
Actual Time 7:30 AM CDT 7:56 PM CDT
Civil Twilight 7:05 AM CDT 8:22 PM CDT
Nautical Twilight 6:34 AM CDT 8:52 PM CDT
Astronomical Twilight 6:04 AM CDT 9:23 PM CDT
Moon 8:39 PM CDT (3/27) 7:24 AM CDT (3/27)
Length of Visible Light 13h 16m
Length of Day
12h 25m
Full, 100% of the Moon is Illuminated
Mar 27
Full
Apr 2
Last Quarter
Apr 10
New
Apr 18
First Quarter
Apr 25
Full

Hourly Weather History & Observations

Time (CDT) Temp. Windchill Dew Point Humidity Pressure Visibility Wind Dir Wind Speed Gust Speed Precip Events Conditions
12:15 AM 44.6 °F 35.7 °F 19.4 °F 37% 30.08 in 10.0 mi SSE 24.2 mph 33.4 mph N/A   Clear
12:35 AM 44.6 °F 35.9 °F 19.4 °F 37% 30.09 in 10.0 mi SSE 23.0 mph 29.9 mph N/A   Clear
12:55 AM 44.6 °F 36.1 °F 19.4 °F 37% 30.08 in 10.0 mi SSE 21.9 mph 28.8 mph N/A   Clear
1:15 AM 44.6 °F 36.1 °F 21.2 °F 39% 30.08 in 10.0 mi South 21.9 mph 28.8 mph N/A   Clear
1:35 AM 44.6 °F 36.1 °F 21.2 °F 39% 30.07 in 10.0 mi South 21.9 mph 29.9 mph N/A   Clear
1:55 AM 44.6 °F 36.1 °F 21.2 °F 39% 30.07 in 10.0 mi South 21.9 mph 31.1 mph N/A   Clear
2:15 AM 44.6 °F 35.3 °F 21.2 °F 39% 30.06 in 10.0 mi South 26.5 mph 32.2 mph N/A   Clear
2:35 AM 44.6 °F 35.9 °F 21.2 °F 39% 30.05 in 10.0 mi South 23.0 mph 33.4 mph N/A   Clear
2:55 AM 44.6 °F 36.1 °F 21.2 °F 39% 30.05 in 10.0 mi South 21.9 mph 29.9 mph N/A   Clear
3:15 AM 44.6 °F 35.5 °F 21.2 °F 39% 30.04 in 10.0 mi South 25.3 mph 32.2 mph N/A   Clear
3:35 AM 46.4 °F 37.2 °F 21.2 °F 37% 30.02 in 10.0 mi South 29.9 mph 36.8 mph N/A   Clear
3:55 AM 46.4 °F 37.7 °F 21.2 °F 37% 30.02 in 10.0 mi South 26.5 mph 36.8 mph N/A   Clear
4:15 AM 44.6 °F 35.5 °F 21.2 °F 39% 30.01 in 10.0 mi South 25.3 mph 35.7 mph N/A   Clear
4:35 AM 44.6 °F 35.3 °F 21.2 °F 39% 30.01 in 10.0 mi South 26.5 mph 34.5 mph N/A   Clear
4:55 AM 42.8 °F 34.0 °F 21.2 °F 42% 30.01 in 10.0 mi South 20.7 mph 28.8 mph N/A   Clear
5:15 AM 42.8 °F 34.8 °F 23.0 °F 46% 30.02 in 10.0 mi South 17.3 mph 27.6 mph N/A   Clear
5:35 AM 42.8 °F 34.3 °F 23.0 °F 46% 30.01 in 10.0 mi SSE 19.6 mph 25.3 mph N/A   Clear
5:55 AM 42.8 °F 34.8 °F 23.0 °F 46% 30.01 in 10.0 mi South 17.3 mph 25.3 mph N/A   Clear
6:15 AM 42.8 °F 34.8 °F 23.0 °F 46% 30.02 in 10.0 mi South 17.3 mph 23.0 mph N/A   Clear
6:35 AM 42.8 °F 34.5 °F 23.0 °F 46% 30.02 in 10.0 mi South 18.4 mph 23.0 mph N/A   Clear
6:55 AM 42.8 °F 34.3 °F 23.0 °F 46% 30.02 in 10.0 mi South 19.6 mph 27.6 mph N/A   Clear
7:15 AM 42.8 °F 34.8 °F 23.0 °F 46% 30.02 in 10.0 mi South 17.3 mph 25.3 mph N/A   Clear
7:35 AM 42.8 °F 34.0 °F 23.0 °F 46% 30.02 in 10.0 mi South 20.7 mph 26.5 mph N/A   Clear
7:55 AM 42.8 °F 33.8 °F 23.0 °F 46% 30.02 in 10.0 mi South 21.9 mph 29.9 mph N/A   Clear
8:15 AM 42.8 °F 33.8 °F 23.0 °F 46% 30.02 in 10.0 mi South 21.9 mph 27.6 mph N/A   Clear
8:35 AM 42.8 °F 33.3 °F 23.0 °F 46% 30.02 in 10.0 mi South 24.2 mph 29.9 mph N/A   Clear
8:55 AM 42.8 °F 33.5 °F 23.0 °F 46% 30.02 in 10.0 mi South 23.0 mph 28.8 mph N/A   Clear
9:15 AM 44.6 °F 34.7 °F 23.0 °F 43% 30.02 in 10.0 mi South 29.9 mph 35.7 mph N/A   Clear
9:35 AM 44.6 °F 35.9 °F 23.0 °F 43% 30.02 in 10.0 mi South 23.0 mph 34.5 mph N/A   Clear
9:55 AM 46.4 °F 38.7 °F 23.0 °F 40% 30.03 in 10.0 mi South 20.7 mph 32.2 mph N/A   Clear
10:15 AM 50.0 °F - 23.0 °F 35% 30.03 in 10.0 mi SSW 20.7 mph 31.1 mph N/A   Clear
10:35 AM 51.8 °F - 23.0 °F 33% 30.03 in 10.0 mi South 20.7 mph 29.9 mph N/A   Clear
10:55 AM 53.6 °F - 24.8 °F 33% 30.04 in 10.0 mi SSW 19.6 mph - N/A   Clear
11:15 AM 55.4 °F - 24.8 °F 31% 30.04 in 10.0 mi SSW 19.6 mph 25.3 mph N/A   Clear
11:35 AM 57.2 °F - 24.8 °F 29% 30.05 in 10.0 mi SSW 18.4 mph 28.8 mph N/A   Clear
11:55 AM 59.0 °F - 24.8 °F 27% 30.04 in 10.0 mi SSW 16.1 mph 24.2 mph N/A   Clear
12:15 PM 59.0 °F - 24.8 °F 27% 30.04 in 10.0 mi SSW 18.4 mph 24.2 mph N/A   Clear
12:35 PM 60.8 °F - 24.8 °F 25% 30.05 in 10.0 mi SW 15.0 mph 19.6 mph N/A   Clear
12:55 PM 60.8 °F - 24.8 °F 25% 30.05 in 10.0 mi SW 16.1 mph 19.6 mph N/A   Clear
1:15 PM 62.6 °F - 24.8 °F 24% 30.04 in 10.0 mi SW 15.0 mph 19.6 mph N/A   Clear
1:35 PM 64.4 °F - 24.8 °F 22% 30.04 in 10.0 mi SSW 10.4 mph 18.4 mph N/A   Clear
1:55 PM 64.4 °F - 24.8 °F 22% 30.03 in 10.0 mi SSW 10.4 mph 17.3 mph N/A   Clear
2:15 PM 66.2 °F - 24.8 °F 21% 30.03 in 10.0 mi SW 11.5 mph - N/A   Clear
2:35 PM 68.0 °F - 26.6 °F 21% 30.02 in 10.0 mi WSW 9.2 mph 19.6 mph N/A   Clear
2:55 PM 68.0 °F - 26.6 °F 21% 30.02 in 10.0 mi SSW 10.4 mph 16.1 mph N/A   Clear
3:15 PM 69.8 °F - 26.6 °F 20% 30.02 in 10.0 mi WSW 5.8 mph - N/A   Clear
3:35 PM 69.8 °F - 26.6 °F 20% 30.01 in 10.0 mi SW 9.2 mph - N/A   Clear
3:55 PM 71.6 °F - 26.6 °F 19% 30.01 in 10.0 mi WSW 3.5 mph - N/A   Clear
4:15 PM 71.6 °F - 26.6 °F 19% 30.00 in 10.0 mi South 4.6 mph - N/A   Clear
4:35 PM 71.6 °F - 26.6 °F 19% 30.00 in 10.0 mi Calm Calm - N/A   Clear
4:55 PM 71.6 °F - 28.4 °F 20% 30.00 in 10.0 mi NW 5.8 mph - N/A   Clear
5:15 PM 71.6 °F - 28.4 °F 20% 30.01 in 10.0 mi NW 9.2 mph - N/A   Clear
5:35 PM 69.8 °F - 28.4 °F 21% 30.02 in 10.0 mi WNW 9.2 mph - N/A   Clear
5:55 PM 69.8 °F - 28.4 °F 21% 30.02 in 10.0 mi NW 10.4 mph - N/A   Clear
6:15 PM 69.8 °F - 28.4 °F 21% 30.02 in 10.0 mi NW 9.2 mph - N/A   Clear
6:35 PM 68.0 °F - 28.4 °F 23% 30.03 in 10.0 mi North 9.2 mph - N/A   Clear
6:55 PM 68.0 °F - 28.4 °F 23% 30.03 in 10.0 mi NNW 8.1 mph - N/A   Clear
7:15 PM 66.2 °F - 30.2 °F 26% 30.04 in 10.0 mi NNW 3.5 mph - N/A   Clear
7:35 PM 64.4 °F - 30.2 °F 28% 30.05 in 10.0 mi NNW 4.6 mph - N/A   Clear
7:55 PM 60.8 °F - 30.2 °F 31% 30.05 in 10.0 mi North 4.6 mph - N/A   Clear
8:15 PM 59.0 °F - 32.0 °F 36% 30.06 in 10.0 mi North 6.9 mph - N/A   Clear
8:35 PM 55.4 °F - 32.0 °F 41% 30.07 in 10.0 mi North 8.1 mph - N/A   Clear
8:55 PM 55.4 °F - 32.0 °F 41% 30.07 in 10.0 mi North 6.9 mph - N/A   Clear
9:15 PM 51.8 °F - 32.0 °F 47% 30.08 in 10.0 mi NNE 9.2 mph - N/A   Clear
9:35 PM 53.6 °F - 32.0 °F 44% 30.08 in 10.0 mi NE 9.2 mph - N/A   Clear
9:55 PM 53.6 °F - 32.0 °F 44% 30.08 in 10.0 mi ENE 8.1 mph - N/A   Clear
10:15 PM 53.6 °F - 32.0 °F 44% 30.09 in 10.0 mi East 8.1 mph - N/A   Clear
10:35 PM 53.6 °F - 32.0 °F 44% 30.10 in 10.0 mi ENE 6.9 mph - N/A   Clear
10:55 PM 53.6 °F - 32.0 °F 44% 30.10 in 10.0 mi ENE 8.1 mph - N/A   Clear
11:15 PM 53.6 °F - 32.0 °F 44% 30.10 in 10.0 mi ENE 9.2 mph - N/A   Clear
11:35 PM 51.8 °F - 33.8 °F 50% 30.11 in 10.0 mi East 9.2 mph - N/A   Clear
11:55 PM 51.8 °F - 33.8 °F 50% 30.11 in 10.0 mi ENE 6.9 mph - N/A   Clear